Tracking 27405 objects as of 1-Jun-2023
HD Live streaming from Space Station
objects crossing your sky now

ARIANE 5 DEB (SYLDA)

Track ARIANE 5 DEB (SYLDA) now!
10-day predictions


NORAD ID: 38781
Int'l Code: 2012-051D
Perigee: 243.1 km
Apogee: 8,252.6 km
Inclination: 6.3 °
Period: 181.5 minutes
Semi major axis: 10618 km
RCS: 10.0393 m2 (large)
Launch date: September 28, 2012
Source: France (FR)
Launch site: FRENCH GUIANA (FRGUI)

Note: This is SATELLITE DEBRIS
Your satellite tracking list
Your tracking list is empty




NASA's NSSDC Master Catalog

Two Line Element Set (TLE):
1 38781U 12051D   23151.78893362  .00212240  00000-0  55525-2 0  9999
2 38781   6.3277 160.2867 3771371  84.5137 316.3849  7.93390153187753
Source of the keplerian elements: AFSPC